Regional Weather Roundup
Issued by NWS Sterling, VA

Home | Current Version | Previous Version | Text Only | Print | Product List | Glossary On
Versions: 1 2 3 4 5 6 7 8 9 10 11 12 13 14 15 16 17 18 19 20 21 22 23 24 25 26 27 28
000
ASUS41 KLWX 111011
RWRLWX

REGIONAL WEATHER ROUNDUP
NATIONAL WEATHER SERVICE BALTIMORE MD/WASHINGTON DC
500 AM EST MON DEC 11 2017

Note: "FAIR" indicates few or no clouds below 12,000 feet
with no significant weather and/or obstructions to visibility.
 TC=TEMPERATURE CELSIUS

 * =Non NWS site. Station does not report precipitation (e.g. rain,
    snow, etc.), thunder, or fog.

DCZ001-MDZ009-015-VAZ040>042-051-053>054-111100-
WASHINGTON METRO

CITY           SKY/WX    TMP DP  RH WIND       PRES   REMARKS
WASHINGTON NAT PTCLDY    36  27  69 CALM      30.06R
DULLES         CLOUDY    31  27  85 CALM      30.04R
ANDREWS AFB    CLOUDY    34  26  71 CALM      30.03R
FT BELVOIR     MOCLDY    31  26  83 CALM      30.05R
QUANTICO       CLEAR     32  29  88 NW5       30.06R
COLLEGE PARK*  CLOUDY    32  27  83 CALM      30.04S
LEESBURG*      CLOUDY    34  30  86 CALM      30.04R
MANASSAS*      CLOUDY    30  27  88 CALM      30.05R
GAITHERSBURG*  CLOUDY    34  24  67 CALM      30.03R

$$

MDZ006>007-011-014-111100-
BALTIMORE METRO

CITY           SKY/WX    TMP DP  RH WIND       PRES   REMARKS
BWI AIRPORT    CLOUDY    35  26  69 CALM      30.03S
MD SCIENCE CTR   N/A     38  27  64 MISG      30.04R
MARTIN STATE   CLOUDY    37  30  75 CALM      30.05S
ANNAPOLIS      CLOUDY    37  28  70 W5        30.04R
FORT MEADE*    CLOUDY    32  30  93 CALM      30.06S

$$

MDZ012-015-019>023-111100-
MARYLAND EASTERN SHORE

CITY           SKY/WX    TMP DP  RH WIND       PRES   REMARKS
OCEAN CITY     CLOUDY    35  30  82 W3        30.06R
SALISBURY      PTCLDY    34  30  85 NW3       30.05R
BAY BRIDGE AP* CLOUDY    37  28  70 CALM      30.04R
CAMBRIDGE*     CLOUDY    32  30  93 E5        30.04S
EASTON*        CLOUDY    37  28  71 CALM      30.07S

$$

MDZ017>025-111100-
SOUTHERN MARYLAND

CITY           SKY/WX    TMP DP  RH WIND       PRES   REMARKS
PATUXENT RIVER MOCLDY    34  28  79 CALM      30.04S
ST INIGOES     PTCLDY    37  28  70 W7        30.04S
LEONARDTOWN*   PTCLDY    32  28  86 CALM      30.06R

$$

MDZ003>005-111100-
NORTH CENTRAL MARYLAND

CITY           SKY/WX    TMP DP  RH WIND       PRES   REMARKS
FREDERICK*     CLOUDY    34  23  64 S3        30.06R
HAGERSTOWN APT CLOUDY    36  22  56 W6        30.01R
WESTMINSTER*   CLOUDY    34  25  69 SW5       30.00R

$$

MDZ501>502-111100-
WESTERN MARYLAND

CITY           SKY/WX    TMP DP  RH WIND       PRES   REMARKS
OAKLAND*       CLOUDY    27  18  69 W10G21    29.87S WCI  17
CUMBERLAND*    CLOUDY    37  21  52 W8G17     30.05R

$$

VAZ025>031-111100-
SHENANDOAH VALLEY

CITY           SKY/WX    TMP DP  RH WIND       PRES   REMARKS
WINCHESTER*    CLOUDY    32  23  69 CALM      30.01S
FRONT ROYAL*   CLOUDY    30  25  80 MISG      30.00S
LURAY*         CLOUDY    30  27  86 CALM      30.01R
NEW MARKET*    CLOUDY    26  22  85 CALM      30.00S
STAUNTON*      PTCLDY    26  18  71 CALM      30.02R
WAYNESBORO*    CLEAR     33  19  56 SW6       29.99R

$$

WVZ021-048>050-054>055-111100-
EASTERN WEST VIRGINIA PANHANDLE

CITY           SKY/WX    TMP DP  RH WIND       PRES   REMARKS
MARTINSBURG    CLOUDY    34  22  61 S3        30.01R
PETERSBURG*    CLOUDY    38  21  49 SW14G31   30.00R

$$

VAZ036>039-050-111100-
CENTRAL FOOTHILLS

CITY           SKY/WX    TMP DP  RH WIND       PRES   REMARKS
CHARLOTTESVILL CLEAR     29  22  75 CALM      30.02R
CULPEPER*      CLOUDY    28  25  86 CALM      30.05R
ORANGE*        CLEAR     30  25  80 CALM      30.03S
GORDONSVILLE*  CLEAR     28  26  92 CALM      30.03R
WARRENTON*     CLOUDY    30  26  84 CALM      30.03S

$$

VAZ055>057-111100-
NORTH AND CENTRAL PIEDMONT

CITY           SKY/WX    TMP DP  RH WIND       PRES   REMARKS
FREDERICKSBRG* PTCLDY    35  27  74 CALM      30.04R
STAFFORD*      CLEAR     29  27  93 CALM      30.08R

$$

NCZ024-NYZ072-PAZ021-071-VAZ022-071-111100-
OTHER REGIONAL OBSERVATIONS

CITY           SKY/WX    TMP DP  RH WIND       PRES   REMARKS
NEW YORK CITY  CLOUDY    34  22  61 W8G21     30.01R WCI  27
PHILADELPHIA   CLOUDY    34  28  79 S9        30.03S WCI  27
PITTSBURGH     CLOUDY    33  20  58 W9        29.99R WCI  25
ROANOKE        CLEAR     39  22  50 W13G23    30.05S
RICHMOND       PTCLDY    33  24  69 W7        30.05S
RALEIGH        PTCLDY    28  24  85 CALM      30.11S

$$

ANZ530>537-111100-
MARINE OBSERVATIONS

STATION/POSITION TIME  TEMP    WIND        PRES
                       AIR SEA DIR/SP/G
                 (UTC) (F)     (DEG/KT/KT) (MB)
THOMAS PT LIGHT  1000   37 47  270/  9/ 11   N/A
BALT KEY BRIDGE  0948   37     210/  7/  9 1017.1R
COVE POINT       0948   37     290/  3/  5 1018.0R
LEWISETTA        0948   36 44  250/  3/  4 1017.6R
SOLOMONS ISLAND  0948   37 48  270/  4/  6 1017.2R
PINEY POINT      0948          290/  6/  8   N/A

$$





USA.gov is the U.S. government's official web portal to all federal, state and local government web resources and services.